Content
SEND FEEDBACK

Daily
Averages
Monthly
Summary
United States of America

CLARKSBURG, CALIFORNIA


Home > North America > United States > California
Elevation: 3 meters     Latitude: 38 25N     Longitude: 121 32W

WEATHER
 
SELECT A DAY
Number of Records: 173,424;   Date Range: 1/1/95 - 4/18/14
 
SHARE

PRINT THIS DATA

[ ← Previous Day ]
WEATHER ALMANAC - 31 JANUARY, 2013
[ Next Day → ]
[ °F ]   °C
Weather ElementAverageHighLow
Temperature7.5 °C17.2 °C (2:53 pm)1.7 °C (5:53 am)
Dewpoint5.2 °C8.9 °C (4:53 pm)1.1 °C (4:53 am)
Humidity87.4 %100 % (1:53 am)52 % (3:53 pm)
Barometer1024.7 hPa1026.8 hPa (8:40 am)1022.7 hPa (4:53 pm)
Wind Speed2.1 km/h11.1 km/h (9:53 pm)
Weather ElementAverage
Visibility9.3 km
Wind DirectionENE (79.3 °)

Weather ElementTotal
Precipitation---
Heating Degree Days8.9 (Base 18.3)
Averaged from 29 records on 31 January, 2013
WEATHER CONDITIONS BREAKOUT
WIND DIRECTION BREAKOUT
WEATHER BY HOUR - 31 JANUARY, 2013
[ °F ]   °C
Local TimeTemperatureDewpointHumidityBarometerVisibilityWind DirectionWind SpeedGust SpeedPrecipitationEventsConditions
1:53 AM3.9 °C3.9 °C100 %1026.1 hPa6.4 kmCalmFogClear
2:53 AM3 °C3 °C100 %1025.7 hPa6.4 kmCalmFogClear
3:00 AM3 °C3 °C100 %1025.7 hPa0.3 kmCalmFogMist
3:17 AM3 °C3 °C100 %1025.4 hPa6.4 kmCalmFogPartly Cloudy
3:53 AM2.8 °C2.8 °C100 %1025.4 hPa1.6 kmSW (220°)5.6 km/hScattered Clouds
4:53 AM2.2 °C1.1 °C93 %1025.4 hPa4.8 kmNW (310°)5.6 km/hFogPartly Cloudy
5:17 AM2 °C2 °C100 %1025.7 hPa1.3 kmCalmScattered Clouds
5:53 AM1.7 °C1.7 °C100 %1025.7 hPa1.6 kmCalmFogPartly Cloudy
6:53 AM2.2 °C1.7 °C97 %1026.1 hPa0.8 kmCalmFogFog
6:59 AM2 °C2 °C100 %1026.1 hPa0.8 kmCalmFogFog
7:53 AM1.7 °C1.1 °C96 %1026.4 hPa0.2 kmCalmFogFog
8:40 AM4 °C4 °C100 %1026.8 hPa0.8 kmCalmFogFog
8:53 AM5.6 °C5 °C96 %1026.8 hPa1.6 kmCalmClear
9:03 AM6 °C6 °C100 %1026.8 hPa6.4 kmCalmClear
9:53 AM10 °C8.3 °C89 %1026.8 hPa12.9 kmCalmClear
10:53 AM12.2 °C8.3 °C77 %1026.4 hPa14.5 kmCalmClear
11:53 AM13.3 °C7.8 °C69 %1025.4 hPa14.5 kmCalmClear
12:53 PM16.1 °C7.8 °C58 %1024.4 hPa14.5 kmCalmClear
1:53 PM16.7 °C7.8 °C56 %1023.7 hPa16.1 kmCalmClear
2:53 PM17.2 °C7.8 °C54 %1023.4 hPa16.1 kmNorth (360°)5.6 km/hClear
3:53 PM17.2 °C7.2 °C52 %1023 hPa16.1 kmCalmClear
4:53 PM16.1 °C8.9 °C62 %1022.7 hPa16.1 kmENE (60°)5.6 km/hClear
5:53 PM11.7 °C8.3 °C80 %1023 hPa16.1 kmNE (50°)5.6 km/hClear
6:53 PM8.9 °C7.8 °C93 %1022.7 hPa16.1 kmCalmClear
7:53 PM10 °C8.3 °C89 %1022.7 hPa16.1 kmCalmClear
8:53 PM6.7 °C6.1 °C96 %1023 hPa16.1 kmNNW (340°)5.6 km/hClear
9:53 PM6.7 °C5.6 °C93 %1023 hPa16.1 kmNW (320°)11.1 km/hClear
10:53 PM6.1 °C5 °C93 %1023 hPa16.1 kmNW (320°)7.4 km/hClear
11:53 PM5.6 °C4.4 °C92 %1023 hPa16.1 kmNW (320°)9.3 km/hClear
Hourly data recorded from KSMF, located 31.08 kilometers away from Clarksburg, California







STORIES FROM OUR PARTNERS